Regional Weather Roundup
Issued by NWS Glasgow, MT

Home | Current Version | Previous Version | Text Only | Print | Product List | Glossary On
Versions: 1 2 3 4 5 6 7 8 9 10 11 12 13 14 15 16 17 18 19 20 21 22 23 24 25 26 27 28 29 30 31 32 33 34 35 36 37 38 39 40 41 42 43 44 45 46 47 48 49 50
000
ASUS45 KGGW 270015
RWRGGW
HOURLY WEATHER ROUNDUP FOR NORTHEAST MONTANA
NATIONAL WEATHER SERVICE GLASGOW MONTANA
600 PM MDT SUN APR 26 2015

NOTE: "FAIR" INDICATES FEW OR NO CLOUDS BELOW 12,000 FEET WITH NO
SIGNIFICANT WEATHER AND/OR OBSTRUCTIONS TO VISISBILITY.

NORTHEAST MONTANA


CITY           SKY/WX    TMP DP  RH WIND       PRES   REMARKS
GLASGOW        CLOUDY    43  33  68 NW7       30.20R
6HR MIN TEMP:  42; 6HR MAX TEMP:  44;

PLENTYWOOD       N/A     47  32  56 N6          N/A
WOLF POINT     CLOUDY    49  36  61 W3        30.19R
JORDAN           N/A     42  32  67 NW13      30.20S
WINNETT          N/A     42  30  62 N12G20      N/A
SIDNEY         CLOUDY    48  34  57 NW9       30.16R
GLENDIVE       CLOUDY    45  37  76 NW9       30.17R
MALTA            N/A     43  33  68 NW7         N/A
SCOBEY           N/A     44  30  58 NW7       30.15R
OPHEIM           N/A     37  32  81 N5        30.15R

FORT PECK REPORTS


CITY           SKY/WX    TMP DP  RH WIND       PRES   REMARKS
FORT PECK        N/A     42  33  70 NW10        N/A
THE PINES        N/A     43  33  68 NW3         N/A

SOUTHEAST MONTANA


CITY           SKY/WX    TMP DP  RH WIND       PRES   REMARKS
BILLINGS       LGT RAIN  37  35  92 NE14      30.18R
MILES CITY     LGT RAIN  40  36  86 N16       30.17R
BAKER          LGT RAIN  43  40  89 N8        30.13R
LIVINGSTON     CLOUDY    41  34  76 E17       30.13R

CENTRAL MONTANA


CITY           SKY/WX    TMP DP  RH WIND       PRES   REMARKS
HAVRE          CLOUDY    43  30  60 SW3       30.22R
LEWISTOWN      LGT SNOW  36  32  85 NW8       30.21R FOG
GREAT FALLS    CLOUDY    42  29  59 W7        30.20R
CUT BANK       MOSUNNY   48  27  44 SW8       30.16S
HELENA         CLOUDY    39  34  82 NW7       30.20R
BUTTE          CLOUDY    39  29  67 W6        30.15S
BOZEMAN        CLOUDY    40  36  86 W9        30.15R

WESTERN MONTANA


CITY           SKY/WX    TMP DP  RH WIND       PRES   REMARKS
MISSOULA       CLOUDY    48  39  71 S8        30.19R
KALISPELL      NOT AVBL

NORTH DAKOTA


CITY           SKY/WX    TMP DP  RH WIND       PRES   REMARKS
WILLISTON      CLOUDY    54  34  46 N7        30.14R
DICKINSON      CLOUDY    44  41  89 NE8       30.11R
MINOT          LGT RAIN  49  45  86 S6        30.13R
BISMARCK       CLOUDY    56  48  74 N13       30.09F

SOUTHERN SASKATCHEWAN


CITY           SKY/WX    TMP DP  RH WIND       PRES   REMARKS
REGINA         CLOUDY    41  34  75 NW12      30.18R
MOOSE JAW      CLOUDY    41  36  81 NW12      30.18R
ESTEVAN        CLOUDY    50  34  53 W3        30.15R
SWIFT CURRENT  MOSUNNY   46  34  61 NW7       30.16R




USA.gov is the U.S. government's official web portal to all federal, state and local government web resources and services.